Location: El Centro
(32.7920°N, 115.5620°W)
Time: 00:51:07
(UTC-07:00)

Hamsat - Visible Passes

Search period start: 02 April 2015 00:00
Search period end: 12 April 2015 00:00
Orbit: 591 x 623 km, 97.6° (Epoch: 01 April)

Date Brightness Start Highest point End Pass type
(mag) Time Alt. Az. Time Alt. Az. Time Alt. Az.
03 Apr ? 05:00:18 10° ENE 05:01:52 12° E 05:03:42 10° ESE visible
04 Apr ? 05:12:27 10° NE 05:15:18 18° E 05:18:16 10° SE visible
05 Apr ? 05:25:07 10° NE 05:28:41 25° E 05:32:16 10° SSE visible
06 Apr ? 05:38:01 10° NNE 05:42:01 36° E 05:45:58 10° SSE visible
07 Apr ? 05:51:04 10° NNE 05:55:17 54° E 05:59:29 10° S visible
10 Apr ? 04:57:36 10° ENE 04:58:42 11° E 05:00:06 10° ESE visible
11 Apr ? 05:09:27 10° NE 05:12:05 16° E 05:14:52 10° SE visible
